Regional Weather Roundup
Issued by NWS

Home | Current Version | Previous Version | Text Only | Print | Product List | Glossary On
Versions: 1 2 3 4 5 6 7 8 9 10 11 12 13 14 15 16 17 18 19 20 21 22 23 24 25 26 27 28 29 30 31 32 33 34 35 36 37 38 39 40 41 42 43 44 45 46 47 48 49 50
000
ASUS43 KMPX 051101
RWRMN
WEATHER ROUNDUP FOR MINNESOTA
NATIONAL WEATHER SERVICE TWIN CITIES/CHANHASSEN MN
600 AM CDT THU MAY 05 2016


NOTE: "FAIR" INDICATES FEW OR NO CLOUDS BELOW 12,000 FEET WITH NO
SIGNIFICANT WEATHER AND/OR OBSTRUCTIONS TO VISIBILITY. N/A MEANS
CURRENT SKY AND/OR WEATHER CONDITIONS ARE NOT AVAILABLE.

MNZ060>063-068>070-051200-
   Twin Cities Metro

CITY           SKY/WX    TMP DP  RH WIND       PRES   REMARKS
TWIN CITIES    CLOUDY    47  27  45 S3        30.04R
ST PAUL        CLOUDY    43  34  70 CALM      30.04S
CRYSTAL        CLOUDY    48  30  49 S5        30.02R
BLAINE         CLOUDY    46  34  61 S5        30.02S
EDEN PRAIRIE   CLOUDY    46  30  53 SE6       30.03R
SOUTH ST PAUL  CLOUDY    42  34  73 CALM      30.03S
LAKE ELMO      LGT RAIN  39  36  87 CALM      30.02F
$$
MNZ001>005-007-008-013>017-022>024-027-028-051200-
   Northwest Minnesota

CITY           SKY/WX    TMP DP  RH WIND       PRES   REMARKS
BEMIDJI        MOCLDY    45  28  51 S5        29.96F
HALLOCK        CLEAR     48  28  46 S9        29.80R
ROSEAU         CLEAR     54  32  43 S15       29.84S
WARROAD        CLOUDY    52  34  50 S17       29.85F
THIEF RVR FALL CLEAR     52  28  40 S13       29.88F
CROOKSTON      CLEAR     54  32  43 S15       29.87S
FOSSTON        CLOUDY    50  28  43 S13       29.92S
DETROIT LAKES  CLEAR     45  37  76 SE9       29.97S
MOORHEAD       CLEAR     48  34  57 S10       29.93S
PARK RAPIDS    PTCLDY    47  28  47 E8        29.98S
MAHNOMEN       PTSUNNY   47  32  55 SE9       29.94S
$$
MNZ006-009>011-018-025>026-051200-
   North Central Minnesota

CITY           SKY/WX    TMP DP  RH WIND       PRES   REMARKS
BAUDETTE       CLOUDY    45  32  60 SE12      29.91S
FLAG ISLAND    PTCLDY    50  34  53 S21       29.84F
INTL FALLS     CLOUDY    45  28  51 W3        29.95R
WASKISH        CLOUDY    48  34  57 SE5       29.93F
BIG FORK       CLEAR     41  28  60 S5        29.96F
LONGVILLE      PTCLDY    37  36  93 CALM      29.98S
GRAND RAPIDS   PTCLDY    39  27  60 SE5       30.01R
CRANE LAKE     CLOUDY    37  37 100 CALM      29.97R
ORR            PTCLDY    41  28  60 CALM      29.94S
COOK           CLOUDY    43  34  70 CALM      29.95F
WALKER         DRIZZLE   42  35  75 W3        29.98R
$$
MNZ012-019>021-037-051200-
   Northeast Minnesota

CITY           SKY/WX    TMP DP  RH WIND       PRES   REMARKS
DULUTH         LGT RAIN  42  34  73 SW7       30.00F
ELY            CLOUDY    43  30  61 SW8       29.96S
HIBBING        MOCLDY    37  32  82 SW3       29.98F
EVELETH        PTCLDY   N/A N/A N/A CALM      30.00R
DULUTH HARBOR  MOCLDY    39  36  87 SW6       30.04S
TWO HARBORS    MOCLDY    36  30  80 CALM      29.99R
SILVER BAY     MOCLDY    30  28  93 CALM      29.99R
GRAND MARAIS     N/A     42  31  64 W3        29.99F
G MARAIS ARPRT CLOUDY    36  27  69 SW6       29.98S
$$
MNZ029>031-032-039>041-046>048-054>057-064-051200-
   West Central Minnesota

CITY           SKY/WX    TMP DP  RH WIND       PRES   REMARKS
FERGUS FALLS   CLEAR     46  34  61 SE7       29.95S
WHEATON        CLEAR     52  36  54 S9        29.98R
MORRIS         CLEAR     43  34  70 S6        29.97S
ALEXANDRIA     CLEAR     47  29  49 S5        30.00R
ELBOW LAKE     FAIR      46  33  60 E6        29.98R
WADENA         CLOUDY    43  30  61 CALM      29.99R
GLENWOOD       CLEAR     46  28  49 S3        30.00R
APPLETON       CLEAR     41  37  87 CALM      29.99R
BENSON         CLEAR     37  32  81 CALM      29.99S
ORTONVILLE     CLEAR     45  34  65 S6        29.97S
MADISON        CLEAR     43  34  70 SW5       29.99S
WILLMAR        FAIR      43  34  70 CALM      30.01S
$$
MNZ033>034-036-042>043-049>051-058-059-051200-
   Central Minnesota

CITY           SKY/WX    TMP DP  RH WIND       PRES   REMARKS
ST CLOUD       CLOUDY    40  33  76 CALM      30.02R
SAUK CENTRE    FAIR      36  32  84 CALM      30.00R
PAYNESVILLE    CLEAR     36  32  83 CALM      30.01R
AITKIN         PTCLDY    46  27  46 CALM      29.99R
PINE RIVER     MOCLDY    36  32  87 CALM      30.02F
BRAINERD       PTCLDY    36  30  79 CALM      30.01R
STAPLES        CLEAR     37  32  81 S5        29.98F
LONG PRAIRIE   FAIR      37  34  87 CALM      30.00R
LITTLE FALLS   CLEAR     36  32  87 CALM      30.02R
LITCHFIELD     PTCLDY    46  36  66 SE3       30.01S
BUFFALO        PTCLDY    46  31  54 CALM      30.04R
MAPLE LAKE     PTCLDY    47  34  59 S3        30.02S
HUTCHINSON     CLEAR     41  34  76 SE3       30.02S
$$
MNZ037-044-045-052-053-051200-
   East Central Minnesota

CITY           SKY/WX    TMP DP  RH WIND       PRES   REMARKS
PRINCETON        N/A     45  28  53 S5        30.02S
MORA           PTCLDY    39  30  70 CALM      30.04R
CAMBRIDGE      CLOUDY    46  32  57 S3        30.01R
RUSH CITY      LGT RAIN  44  33  65 CALM      30.04R
MOOSE LAKE     MOCLDY    37  36  93 SW3       30.01S
HINCKLEY       LGT RAIN  41  37  87 E3        30.05R
CLOQUET        LGT RAIN  37  36  93 S3        30.01S
MCGREGOR       CLOUDY    43  32  65 SE3       30.02R
$$
MNZ071>073-080-081-089-090-097-098-051200-
   Southwest Minnesota

CITY           SKY/WX    TMP DP  RH WIND       PRES   REMARKS
MONTEVIDEO     CLEAR     43  34  70 CALM      30.01S
GRANITE FALLS  CLEAR     42  34  73 S6        30.01S
CANBY          CLEAR     54  35  48 SW5       30.01R
MARSHALL       CLEAR     44  32  62 SW7       30.01R
REDWOOD FALLS  CLEAR     41  30  65 SW3       30.01R
OLIVIA         CLEAR     41  30  65 CALM      30.00R
PIPESTONE      CLEAR     45  32  61 CALM      30.02S
WINDOM         CLEAR     39  34  81 CALM      30.02R
WORTHINGTON    CLEAR     42  33  70 SW5       30.03R
JACKSON        CLEAR     43  32  65 CALM      30.03R
TRACY          CLEAR     47  34  59 SW6       30.01S
SLAYTON        CLEAR     45  31  59 SW6       30.02S
$$
MNZ065>067-074>077-082>085-091>093-051200-
   South Central Minnesota

CITY           SKY/WX    TMP DP  RH WIND       PRES   REMARKS
MANKATO        CLOUDY    43  28  56 S7        30.03R
ST JAMES       CLEAR     36  32  87 CALM      30.03S
FAIRMONT       CLEAR     39  30  70 S5        30.02R
GLENCOE        CLOUDY    45  32  60 CALM      30.01S
FARIBAULT      CLOUDY    36  30  80 CALM      30.03R
OWATONNA       CLOUDY    36  30  80 CALM      30.04R
WASECA         CLOUDY    36  28  75 SE3       30.05R
ALBERT LEA     CLOUDY    37  32  81 CALM      30.04R
$$
MNZ078>079-086>088-094>096-051200-
   Southeast Minnesota

CITY           SKY/WX    TMP DP  RH WIND       PRES   REMARKS
ROCHESTER      CLEAR     41  26  55 NW3       30.04R
RED WING       CLOUDY    37  30  75 CALM      30.03R
STANTON        CLOUDY    35  29  79 CALM      30.03R
DODGE CENTER   PTCLDY    36  25  64 CALM      30.03R
WINONA         CLEAR     36  32  87 CALM      30.05R
AUSTIN         CLEAR     36  30  80 CALM      30.04R
PRESTON        CLEAR     41  25  52 CALM      30.04R
$$
ABBREVIATIONS USED IN REMARKS
   TC - TEMPERATURES IN CELSIUS
  WCI - WIND CHILL INDEX
   HX - HEAT INDEX
  VSB - VISIBILITY
$$



USA.gov is the U.S. government's official web portal to all federal, state and local government web resources and services.